Home > Weather > Dharamshala > Past weeks

Flag for India Past Weather in Dharamshala, Himachal Pradesh, India — Yesterday and Last 2 Weeks

Now
91 °F

Fog.


Feels Like: 118 °F
Forecast: 65 / 80 °F
Wind: 2 mph from North

Location: Amritsar Airport

Current Time: Jun 26, 2016 at 10:56:02 PM

Latest Report: Jun 26, 2016 at 10:00 PM


Visibility: 2 mi

Pressure: 29.50 "Hg (25.28 "Hg at 1382m altitude)

Humidity: 80%

Dew Point: 84 °F

Location of DharamshalaLocation

Past Weather in Dharamshala — Graph

°F

Dharamshala Temperature Yesterday

Maximum temperature yesterday: 102 °F (at 2:00 PM)
Minimum temperature yesterday: 84 °F (at 2:00 AM)
Average temperature yesterday: 94 °F

High & Low Weather Summary for the Past Weeks

 TemperatureHumidityPressure
High104 °F (Jun 12, 3:30 PM)100% (Jun 17, 8:30 AM)29.68 "Hg (Jun 17, 8:30 AM)
Low73 °F (Jun 22, 10:30 AM)29% (Jun 12, 4:30 PM)29.33 "Hg (Jun 15, 5:00 PM)
Average90 °F66%29.53 "Hg
* Reported Jun 11 9:30 PM — Jun 26 9:30 PM, Dharamshala, Weather by CustomWeather, © 2016

Note: Actual official high and low records may vary slightly from our data, if they occured in-between our weather recording intervals... More about our weather records

Advertising

Dharamshala Weather History for the Previous 24 Hours

Scroll right to see more
 ConditionsComfort  
Time TempWeatherWind HumidityBarometerVisibility
9:30 PM
Sun, Jun 26
91 °FFog.No wind80%29.50 "Hg2 mi
9:00 PM91 °FFog.No wind80%29.47 "Hg2 mi
8:30 PM93 °FPartly cloudy.No wind71%29.47 "Hg2 mi
8:00 PM93 °FBroken clouds.No wind71%29.47 "Hg2 mi
7:30 PM95 °FBroken clouds.No wind60%29.50 "Hg2 mi
7:00 PM97 °FBroken clouds.1 mph56%29.50 "Hg2 mi
6:30 PM97 °FBroken clouds.2 mph56%29.50 "Hg2 mi
6:00 PM97 °FBroken clouds.5 mph56%29.50 "Hg2 mi
5:30 PM99 °FBroken clouds.6 mph53%29.50 "Hg2 mi
5:00 PM99 °FBroken clouds.7 mph53%29.50 "Hg2 mi
4:30 PM99 °FBroken clouds.6 mph57%29.53 "Hg2 mi
4:00 PM99 °FBroken clouds.8 mph57%29.53 "Hg2 mi
3:30 PM97 °FBroken clouds.8 mph60%29.53 "Hg2 mi
3:00 PM102 °FBroken clouds.10 mph51%29.56 "Hg2 mi
2:30 PM95 °FBroken clouds.12 mph60%29.56 "Hg2 mi
2:00 PM95 °FBroken clouds.12 mph60%29.59 "Hg2 mi
1:30 PM95 °FBroken clouds.12 mph56%29.59 "Hg2 mi
12:30 PM93 °FBroken clouds.13 mph56%29.62 "Hg2 mi
12:00 PM91 °FBroken clouds.14 mph59%29.62 "Hg2 mi
11:30 AM90 °FBroken clouds.14 mph63%29.65 "Hg2 mi
11:00 AM90 °FBroken clouds.13 mph59%29.65 "Hg2 mi
10:30 AM90 °FBroken clouds.15 mph59%29.65 "Hg2 mi
10:00 AM88 °FBroken clouds.15 mph66%29.65 "Hg2 mi
9:00 AM88 °FBroken clouds.13 mph70%29.65 "Hg2 mi
8:00 AM86 °FScattered clouds.13 mph70%29.62 "Hg2 mi
7:30 AM88 °FFog.10 mph75%29.59 "Hg2 mi
7:00 AM88 °FFog.15 mph75%29.68 "Hg1 mi
6:30 AM88 °FFog.14 mph84%29.62 "Hg1 mi
6:00 AM88 °FFog.10 mph84%29.62 "Hg1 mi
5:30 AM88 °FFog.5 mph84%29.59 "Hg1 mi
5:00 AM88 °FFog.5 mph84%29.59 "Hg1 mi
4:30 AM88 °FFog.2 mph89%29.56 "Hg1 mi
4:00 AM88 °FFog.2 mph89%29.56 "Hg1 mi
3:30 AM90 °FHaze.No wind79%29.56 "Hg1 mi
3:00 AM90 °FHaze.No wind79%29.56 "Hg1 mi
2:30 AM91 °FHaze.2 mph71%29.56 "Hg1 mi
2:00 AM90 °FHaze.No wind75%29.56 "Hg1 mi
1:30 AM90 °FHaze.No wind79%29.56 "Hg1 mi
1:00 AM88 °FHaze.No wind84%29.56 "Hg1 mi
12:30 AM88 °FHaze.2 mph79%29.59 "Hg1 mi
12:00 AM88 °FHaze.No wind79%29.59 "Hg1 mi
11:30 PM
Sat, Jun 25
91 °FHaze.5 mph67%29.59 "Hg1 mi
11:00 PM93 °FHaze.2 mph71%29.56 "Hg1 mi
10:30 PM93 °FHaze.No wind67%29.56 "Hg2 mi
10:00 PM93 °FHaze.No wind67%29.56 "Hg2 mi
Weather by CustomWeather, © 2016

See weather overviewHow to use our weather pages